(224589) = 2005 XF70

Discovered at Kitt Peak on 2005-12-06 by Spacewatch.

Orbit

Orbit type: Main Belt

Note: WebGL enabled browser required.

epoch2023-09-13.0
epoch JD2460200.5
perihelion date2019-02-04.51443
perihelion JD2458519.01443
argument of perihelion (°)310.22241
ascending node (°)51.94350
inclination (°)9.00552
eccentricity0.0697740
perihelion distance (AU)2.6132172
Tisserand w.r.t. Jupiter3.3
ΔV w.r.t. Earth (km/sec)10.5
semimajor axis (AU)2.8092282
mean anomaly (°)351.97877
mean daily motion (°/day)0.20932610
aphelion distance (AU)3.005
period (years)4.71
P-vector [x]0.99187454
P-vector [y]0.08753898
P-vector [z]-0.09231378
Q-vector [x]-0.03152542
Q-vector [y]0.87211728
Q-vector [z]0.48828025
absolute magnitude15.98
phase slope0.15
uncertainty0
referenceMPEC 2024-A48
observations used399
oppositions15
arc length (days)8417
first opposition used2000
last opposition used2023
residual rms (arc-secs)0.69
perturbers coarse indicatorM-v
perturbers precise indicator003Ek
first observation date used2000-11-21.0
last observation date used2023-12-08.0
computer nameMPCLINUX
JD of orbit computation2456966.845410
perihelion JD uncertainty (days)2.3100E-04
argument of perihelion uncertainty (°)6.0954E-05
ascending node uncertainty (°)3.6797E-05
inclination uncertainty (°)8.5489E-06
eccentricity uncertainty 8.4191E-08
perihelion distance uncertainty (AU)2.3913E-07
Minimum Orbit Intersection Distances (in AU)
for orbit epoch: 2460200.5, reference: E2024-A48
Mercury2.23721
Venus1.88878
Earth1.62185
Mars1.1957
Jupiter2.32325
Saturn6.26182
Uranus15.4763
Neptune27.1934

Observations

405 total observations over interval: 2000 11 21.32070 – 2023 12 08.114383
These data are available for download (format description).

Date (UT) J2000 RA J2000 Dec Magn Location Ref
2000 11 21.32070 03 33 45.13 +20 28 32.3 19.2   704 – Lincoln Laboratory ETS, New Mexico MPS 161856
2000 11 21.33532 03 33 44.15 +20 28 32.8 19.1   704 – Lincoln Laboratory ETS, New Mexico MPS 161856
2000 11 21.34992 03 33 43.30 +20 28 33.2 18.7   704 – Lincoln Laboratory ETS, New Mexico MPS 161856
2004 08 21.65923 22 59 12.57 -21 53 06.9 19.3 R E12 – Siding Spring Survey MPS 161856
2004 08 21.67051 22 59 12.03 -21 53 09.6 19.4 R E12 – Siding Spring Survey MPS 161856
2004 08 21.68182 22 59 11.50 -21 53 13.8 19.2 R E12 – Siding Spring Survey MPS 161856
2004 08 21.69311 22 59 10.92 -21 53 16.9 19.7 R E12 – Siding Spring Survey MPS 161856
2004 09 14.19501 22 38 58.21 -23 12 20.3 18.9   644 – Palomar Mountain/NEAT MPS 161856
2004 09 14.22642 22 38 56.63 -23 12 22.5 18.9   644 – Palomar Mountain/NEAT MPS 161856
2004 09 14.24711 22 38 55.59 -23 12 24.1 18.6   644 – Palomar Mountain/NEAT MPS 161856
2004 09 21.18499 22 33 40.14 -23 15 28.5 20.4   704 – Lincoln Laboratory ETS, New Mexico MPS 161856
2004 09 21.19679 22 33 39.70 -23 15 29.0 20.3   704 – Lincoln Laboratory ETS, New Mexico MPS 161856
2004 09 21.22046 22 33 38.63 -23 15 28.5 20.2   704 – Lincoln Laboratory ETS, New Mexico MPS 161856
2005 11 28.31389 06 04 13.86 +30 15 04.0 20.4 V 691 – Steward Observatory, Kitt Peak-Spacewatch MPS 155520
2005 11 28.33204 06 04 12.94 +30 15 08.2 21.1 V 691 – Steward Observatory, Kitt Peak-Spacewatch MPS 155520
2005 11 28.35195 06 04 11.90 +30 15 12.5 20.4 V 691 – Steward Observatory, Kitt Peak-Spacewatch MPS 155520
2005 12 06.24386 05 56 58.20 +30 43 48.1 20.1 V 691 – Steward Observatory, Kitt Peak-Spacewatch MPS 155520
2005 12 06.26139 05 56 57.14 +30 43 51.7 20.0 V 691 – Steward Observatory, Kitt Peak-Spacewatch MPS 155520
2005 12 06.27876 05 56 56.07 +30 43 55.2 19.9 V 691 – Steward Observatory, Kitt Peak-Spacewatch MPS 155520
2005 12 10.28056 05 52 52.44 +30 56 27.7 20.9 V 691 – Steward Observatory, Kitt Peak-Spacewatch MPS 155520
2005 12 10.30158 05 52 51.11 +30 56 31.3 19.7 V 691 – Steward Observatory, Kitt Peak-Spacewatch MPS 155520
2005 12 10.31913 05 52 50.02 +30 56 34.4 20.0 V 691 – Steward Observatory, Kitt Peak-Spacewatch MPS 155520
2005 12 24.27863 05 37 55.64 +31 27 10.8 20.0   704 – Lincoln Laboratory ETS, New Mexico MPS 156672
2005 12 24.29193 05 37 54.83 +31 27 12.1 20.3   704 – Lincoln Laboratory ETS, New Mexico MPS 156672
2005 12 24.30522 05 37 53.89 +31 27 13.0 20.8   704 – Lincoln Laboratory ETS, New Mexico MPS 156672
2005 12 24.31863 05 37 53.09 +31 27 14.0 20.0   704 – Lincoln Laboratory ETS, New Mexico MPS 156672
2007 03 15.37750 11 58 52.71 +12 30 50.6 21.2 V 703 – Catalina Sky Survey MPS 203131
2007 03 15.38700 11 58 52.10 +12 30 58.1 20.2 V 703 – Catalina Sky Survey MPS 203131
2007 03 15.39649 11 58 51.81 +12 30 57.4 20.0 V 703 – Catalina Sky Survey MPS 203131
2007 03 15.40598 11 58 51.27 +12 30 59.0 20.8 V 703 – Catalina Sky Survey MPS 203131
2007 04 15.82914 11 34 36.73 +13 35 54.1 20.0 R 152 – Moletai Astronomical Observatory MPS 347022
2007 04 15.83352 11 34 36.66 +13 35 53.5 20.2 R 152 – Moletai Astronomical Observatory MPS 347022
2007 04 15.83788 11 34 36.50 +13 35 51.9 19.4 R 152 – Moletai Astronomical Observatory MPS 347022
2007 04 15.84251 11 34 36.49 +13 35 53.8 19.5 R 152 – Moletai Astronomical Observatory MPS 347022
2007 04 17.84184 11 33 31.25 +13 34 38.0 19.3 R 152 – Moletai Astronomical Observatory MPS 211549
2007 04 17.84622 11 33 31.16 +13 34 38.4 19.9 R 152 – Moletai Astronomical Observatory MPS 211549
2007 04 17.85059 11 33 31.01 +13 34 38.3 19.6 R 152 – Moletai Astronomical Observatory MPS 211549
2007 04 17.85498 11 33 30.88 +13 34 38.6 19.7 R 152 – Moletai Astronomical Observatory MPS 211549
2007 04 17.85955 11 33 30.81 +13 34 38.0 20.3 R 152 – Moletai Astronomical Observatory MPS 211549
2007 04 17.91281 11 33 29.03 +13 34 35.7 20.0 R 152 – Moletai Astronomical Observatory MPS 211549
2007 04 17.92167 11 33 28.67 +13 34 35.3 20.6 R 152 – Moletai Astronomical Observatory MPS 211549
2007 04 17.92608 11 33 28.59 +13 34 34.3 20.6 R 152 – Moletai Astronomical Observatory MPS 211549
2009 09 27.29995 00 59 16.08 -04 28 35.4 19.3 V 703 – Catalina Sky Survey MPS 296954
2009 09 27.30740 00 59 15.57 -04 28 36.7 19.2 V 703 – Catalina Sky Survey MPS 296954
2009 09 27.31469 00 59 15.21 -04 28 38.2 19.4 V 703 – Catalina Sky Survey MPS 296954
2009 09 27.32196 00 59 14.89 -04 28 40.1 19.4 V 703 – Catalina Sky Survey MPS 296954
2009 09 27.37293 00 59 12.15 -04 28 49.0 19.4 V G96 – Mt. Lemmon Survey MPS 296954
2009 09 27.38040 00 59 11.76 -04 28 50.4 19.5 V G96 – Mt. Lemmon Survey MPS 296954
2009 09 27.38778 00 59 11.40 -04 28 51.8 19.6 V G96 – Mt. Lemmon Survey MPS 296954
2009 09 27.39510 00 59 11.00 -04 28 53.1 19.5 V G96 – Mt. Lemmon Survey MPS 296954
2009 10 09.26330 00 48 42.04 -04 59 45.4 20.0 V 703 – Catalina Sky Survey MPS 298341
2009 10 09.27049 00 48 41.65 -04 59 45.1 19.8 V 703 – Catalina Sky Survey MPS 298341
2009 10 09.27767 00 48 41.25 -04 59 46.2 19.5 V 703 – Catalina Sky Survey MPS 298341
2009 10 09.28498 00 48 40.89 -04 59 48.7 19.4 V 703 – Catalina Sky Survey MPS 298341
2009 10 17.19770 00 41 51.50 -05 11 15.8 19.6 V G96 – Mt. Lemmon Survey MPS 299411
2009 10 17.20501 00 41 51.14 -05 11 16.2 19.5 V G96 – Mt. Lemmon Survey MPS 299411
2009 10 17.21251 00 41 50.74 -05 11 16.5 19.5 V G96 – Mt. Lemmon Survey MPS 299411
2009 10 17.22016 00 41 50.35 -05 11 16.8 19.5 V G96 – Mt. Lemmon Survey MPS 299411
2009 10 19.22323 00 40 12.48 -05 12 42.9 19.5   704 – Lincoln Laboratory ETS, New Mexico MPS 299411
2009 10 19.24968 00 40 11.09 -05 12 42.9 19.7   704 – Lincoln Laboratory ETS, New Mexico MPS 299411
2009 10 19.26292 00 40 10.45 -05 12 43.5 19.8   704 – Lincoln Laboratory ETS, New Mexico MPS 299411
2009 10 19.27615 00 40 09.80 -05 12 45.0 19.3   704 – Lincoln Laboratory ETS, New Mexico MPS 299411
2009 10 20.21291 00 39 25.30 -05 13 12.1 19.5   704 – Lincoln Laboratory ETS, New Mexico MPS 299411
2009 10 20.22620 00 39 24.54 -05 13 10.5 20.0   704 – Lincoln Laboratory ETS, New Mexico MPS 299411
2009 10 20.25285 00 39 23.31 -05 13 12.5 19.9   704 – Lincoln Laboratory ETS, New Mexico MPS 299411
2009 10 20.26619 00 39 22.69 -05 13 12.2 19.9   704 – Lincoln Laboratory ETS, New Mexico MPS 299411
2010 12 29.27232 08 07 27.48 +31 53 02.2 20.4 V 703 – Catalina Sky Survey MPS 363295
2010 12 29.27751 08 07 27.19 +31 53 04.5 20.2 V 703 – Catalina Sky Survey MPS 363295
2010 12 29.28274 08 07 26.90 +31 53 06.8 20.4 V 703 – Catalina Sky Survey MPS 363295
2010 12 29.28803 08 07 26.61 +31 53 08.5 19.9 V 703 – Catalina Sky Survey MPS 363295
2011 01 10.30552 07 56 04.02 +32 53 17.3 20.1 V 703 – Catalina Sky Survey MPS 366705
2011 01 10.31189 07 56 03.66 +32 53 20.6 20.2 V 703 – Catalina Sky Survey MPS 366705
2011 01 10.31830 07 56 03.33 +32 53 22.3 19.8 V 703 – Catalina Sky Survey MPS 366705
2011 01 10.32472 07 56 02.72 +32 53 23.9 20.2 V 703 – Catalina Sky Survey MPS 366705
2011 01 13.37870 07 52 54.19 +33 06 07.5 20.0 V G96 – Mt. Lemmon Survey MPS 366705
2011 01 13.38632 07 52 53.68 +33 06 09.3 20.0 V G96 – Mt. Lemmon Survey MPS 366705
2011 01 13.39401 07 52 53.22 +33 06 11.1 20.0 V G96 – Mt. Lemmon Survey MPS 366705
2011 01 13.40162 07 52 52.71 +33 06 12.9 20.0 V G96 – Mt. Lemmon Survey MPS 366705
2011 01 25.29395 07 40 39.43 +33 42 40.4 20.2 V G96 – Mt. Lemmon Survey MPS 368410
2011 01 25.30143 07 40 38.96 +33 42 41.2 20.0 V G96 – Mt. Lemmon Survey MPS 368410
2011 01 25.30890 07 40 38.49 +33 42 42.1 20.1 V G96 – Mt. Lemmon Survey MPS 368410
2011 01 25.31645 07 40 38.02 +33 42 43.2 19.8 V G96 – Mt. Lemmon Survey MPS 368410
2012 04 15.37076 13 12 29.337 +00 10 07.81 20.6 g F51 – Pan-STARRS 1, Haleakala MPS 421692
2012 04 15.38241 13 12 28.722 +00 10 09.70 20.6 g F51 – Pan-STARRS 1, Haleakala MPS 421692
2012 04 15.47771 13 12 23.668 +00 10 23.97 20.0 r F51 – Pan-STARRS 1, Haleakala MPS 421692
2012 04 15.48873 13 12 23.085 +00 10 25.55 20.1 r F51 – Pan-STARRS 1, Haleakala MPS 421692
2012 04 21.26256 13 07 32.98 +00 23 14.4 20.2 V G96 – Mt. Lemmon Survey MPS 422691
2012 04 21.26949 13 07 32.66 +00 23 15.3 20.2 V G96 – Mt. Lemmon Survey MPS 422691
2012 04 21.27645 13 07 32.30 +00 23 16.2 20.2 V G96 – Mt. Lemmon Survey MPS 422691
